Weather Roundup
Issued by NWS Springfield, MO

Home | Current Version | Previous Version | Text Only | Print | Product List | Glossary On
Versions: 1 2 3 4 5 6 7 8 9 10 11 12 13 14 15 16 17 18 19 20 21 22 23 24 25 26 27 28 29 30 31 32 33 34 35 36 37 38 39 40 41 42 43 44 45 46 47 48 49 50
000
NZUS99 KSGF 231907
HRRSGF

HOURLY WEATHER
NATIONAL WEATHER SERVICE SPRINGFIELD MO
200 PM CDT TUE SEP 23 2014

......SGF CWA......

CITY           SKY/WX    TMP DP  RH WIND       PRES   REMARKS
SPRINGFIELD    SUNNY     71  44  37 SE9       30.24F
JOPLIN         MOSUNNY   74  52  46 SE13      30.22F
WEST PLAINS    SUNNY     71  45  39 CALM      30.28F
ROLLA          SUNNY     73  44  35 SE10      30.26F
OSAGE BEACH    MOSUNNY   73  45  35 SE8       30.26F
BRANSON        PTSUNNY   73  46  38 SE6       30.27F

......SURROUNDING SGF CWA......

CITY           SKY/WX    TMP DP  RH WIND       PRES   REMARKS
CHANUTE        MOSUNNY   74  55  51 S16G23    30.20F
PARSONS        SUNNY     75  55  49 S9        30.20F
COFFEYVILLE    SUNNY     76  56  49 S10G18    30.19F
EMPORIA        MOSUNNY   74  56  53 S17G28    30.16F
GROVE OK       MOSUNNY   77  50  38 SE8       30.22F
ROGERS AR      MOSUNNY   71  47  42 E6        30.25F
SILOAM SPRINGS MOSUNNY   73  48  40 CALM      30.24F
HARRISON AR    MOSUNNY   71  46  40 E10       30.27F
NEAR YELLVILLE SUNNY     73  46  38 E6        30.26F

......KANSAS AND MISSOURI......

CITY           SKY/WX    TMP DP  RH WIND       PRES   REMARKS
KANSAS CTY INT PTSUNNY   71  54  54 S16       30.20F
DOWNTOWN KC    PTSUNNY   75  54  47 S14       30.20F
COLUMBIA       MOSUNNY   73  49  42 SE10G17   30.27F
SEDALIA        PTSUNNY   73  51  46 SE9       30.24F
ST JOSEPH      CLOUDY    74  54  49 S13G22    30.18F
ST LOUIS       MOSUNNY   73  48  41 NE5       30.29F
SPIRIT OF STL  MOSUNNY   72  49  44 CALM      30.28F
KIRKSVILLE     PTSUNNY   70  52  52 S8        30.27F
WICHITA        PTSUNNY   82  51  34 S20G28    30.11F
TOPEKA         PTSUNNY   75  53  46 S15       30.17F
OLATHE         PTSUNNY   72  54  53 S12       30.21S

......TENNESSEE......

CITY           SKY/WX    TMP DP  RH WIND       PRES   REMARKS
MEMPHIS        MOSUNNY   79  43  27 NE9G16    30.21F
NASHVILLE      MOSUNNY   76  47  35 VRB3      30.24F

......ARKANSAS.......

CITY           SKY/WX    TMP DP  RH WIND       PRES   REMARKS
FAYETTEVILLE   MOSUNNY   73  50  44 E6        30.23F
FT SMITH       MOSUNNY   75  49  39 SE6       30.22F
LITTLE ROCK    MOSUNNY   79  45  29 CALM      30.22F

......OKLAHOMA.......

CITY           SKY/WX    TMP DP  RH WIND       PRES   REMARKS
TULSA          MOSUNNY   77  53  43 SE9G18    30.19F
PONCA CITY     SUNNY     79  53  40 SE14G25   30.15F
MCALESTER      SUNNY     77  48  35 VRB7      30.20F
OKLAHOMA CITY  MOSUNNY   79  52  38 S9G20     30.16F

......IOWA............

CITY           SKY/WX    TMP DP  RH WIND       PRES   REMARKS
DES MOINES     CLOUDY    70  51  51 S13       30.22F
QUAD CITIES    SUNNY     73  46  38 SE5       30.28F

......ILLINOIS........

CITY           SKY/WX    TMP DP  RH WIND       PRES   REMARKS
QUINCY         PTSUNNY   71  45  39 S7        30.28F
CHICAGO        MOSUNNY   69  46  43 SW6       30.32F



USA.gov is the U.S. government's official web portal to all federal, state and local government web resources and services.